SCP
0 0 0 0 0 0 0 0 0 0 0 0 0 0 0 1 1 1 1 1 1 1 1 1 1 1 1 1 2 2 2 2 3 3 4 5 5 4 3 2 2 2 2 2
0 0 0 0 0 0 0 0 0 0 0 0 0 0 0 0 1 1 1 1 1 1 1 1 1 1 1 1 1 2 2 2 2 3 3 4 4 3 3 3 2 2 2 2
0 0 0 0 0 0 0 0 0 0 0 0 0 0 0 0 0 0 1 1 1 1 1 0 0 1 1 1 1 1 1 1 2 2 2 2 3 3 3 2 2 2 1 1
0 0 0 0 0 0 0 0 0 0 0 0 0 0 0 0 0 0 0 0 0 0 0 0 0 0 0 0 1 1 1 1 1 1 1 1 2 2 2 2 2 2 1 1
0 0 0 0 0 0 0 0 0 0 0 0 0 0 0 0 0 0 0 0 0 0 0 0 0 0 0 0 0 0 1 1 1 1 1 1 1 1 1 2 2 1 1 1
0 0 0 0 0 0 0 0 0 0 0 0 0 0 0 0 0 0 0 0 0 0 0 0 0 0 0 0 0 0 0 1 1 1 1 1 1 1 1 1 1 1 1 0
0 0 0 0 0 0 0 0 0 0 0 0 0 0 0 0 0 0 0 0 0 0 0 0 0 0 0 0 0 0 0 0 0 0 0 1 1 1 1 1 1 1 0 0
0 0 0 0 0 0 0 0 0 0 0 0 0 0 0 0 0 0 0 0 0 0 0 0 0 0 0 0 0 0 0 0 0 0 0 1 1 1 1 1 1 0 0 0
0 0 0 0 0 0 0 0 0 0 0 0 0 0 0 0 0 0 0 0 0 0 0 0 0 0 0 0 0 0 0 0 0 0 1 1 1 1 1 0 0 0 0 0
0 0 0 0 0 0 0 0 0 0 0 0 0 0 0 0 0 0 0 -0 0 0 0 0 0 0 0 0 0 0 0 0 0 0 1 0 0 0 0 0 0 0 0 0
0 0 0 0 0 0 0 0 0 0 0 0 0 0 0 0 0 0 0 -0 -0 0 0 0 0 0 0 0 0 0 0 0 0 0 0 0 0 0 0 0 0 0 0 0
0 0 0 0 0 0 0 0 0 0 0 0 0 0 0 0 0 0 0 0 0 0 0 0 0 0 0 0 0 0 0 0 0 0 0 0 0 0 0 0 0 0 0 0
0 0 0 0 0 0 0 0 0 0 0 0 0 0 0 0 0 0 0 0 0 0 0 0 0 0 0 0 0 0 0 0 0 0 0 0 0 0 0 0 0 0 0 0
0 0 0 0 0 0 0 0 0 0 0 0 0 0 0 0 0 0 0 0 0 0 0 0 0 0 0 0 0 0 0 0 0 0 0 0 0 0 0 0 0 0 0 0
0 0 0 0 -0 -0 0 0 0 0 0 0 0 0 0 0 0 0 0 0 0 0 0 0 0 0 0 0 0 0 0 0 0 0 0 0 0 0 0 0 0 0 0 0
0 0 0 0 0 0 0 0 0 0 0 0 0 0 0 0 0 0 0 0 0 0 0 0 0 0 0 0 0 0 0 0 0 0 0 0 0 0 0 0 0 0 0 0
0 0 0 0 0 0 0 0 0 0 0 0 0 0 0 0 0 0 0 0 0 0 0 0 0 0 0 0 0 0 0 0 0 0 0 0 0 0 0 0 0 0 0 0
0 0 0 0 0 0 0 0 0 0 0 0 0 0 0 0 0 0 0 0 0 0 0 0 0 0 0 0 0 0 0 0 0 0 0 0 0 0 0 0 0 0 0 0
0 0 0 0 0 0 0 0 0 0 0 0 0 0 0 0 0 0 0 0 0 0 0 0 0 0 0 0 0 0 0 0 0 0 0 0 0 0 0 0 0 0 0 0
0 0 0 0 0 0 0 0 0 0 0 0 0 0 0 0 0 0 0 0 0 0 0 0 0 0 0 0 0 0 0 0 0 0 0 0 0 0 0 0 0 0 0 0
0 0 0 0 0 0 0 0 0 0 0 0 0 0 0 0 0 0 0 0 0 0 0 0 0 0 0 0 0 0 0 0 0 0 0 0 0 0 0 0 0 0 0 0
0 0 0 0 0 0 0 0 0 0 0 0 0 0 0 0 0 0 0 0 0 0 0 0 0 0 0 0 0 0 0 0 0 0 0 0 0 0 0 0 0 0 0 0
0 0 0 0 0 0 0 0 0 0 0 0 0 0 0 0 0 0 0 0 0 0 0 0 0 0 0 0 0 0 0 0 0 0 0 0 0 0 0 0 0 0 0 0
0 0 0 0 0 0 0 0 0 0 0 0 0 0 0 0 0 0 0 0 0 0 0 0 0 0 0 0 0 0 0 0 0 0 0 0 0 0 0 0 0 0 0 0
0 0 0 0 0 0 0 0 0 0 0 0 0 0 0 0 0 0 0 0 0 0 0 0 0 0 0 0 0 0 0 0 0 0 0 0 0 0 0 0 0 0 0 0
0 0 0 0 0 0 0 0 0 0 0 0 0 0 0 0 0 0 0 0 0 0 0 0 1 0 0 0 0 0 0 0 0 0 0 0 0 0 0 0 0 0 0 0
Wind_Speed
3 4 1 3 3 3 1 3 3 1 4 7 5 4 2 4 4 4 3 2 2 3 4 3 3 4 5 6 7 7 7 6 6 6 7 7 7 6 6 7 8 8 8 9
8 3 3 3 3 2 1 2 3 3 3 8 9 8 3 0 2 3 2 1 1 2 3 4 4 5 7 7 7 8 8 7 7 6 5 5 6 6 6 7 9 10 10 10
2 6 3 5 4 3 3 6 7 11 12 11 11 13 10 7 4 3 3 3 3 2 1 0 2 4 6 7 9 8 9 8 8 8 6 5 6 6 7 9 10 12 11 11
1 2 1 4 1 6 6 4 8 11 13 12 8 13 8 9 7 5 5 5 6 4 3 4 5 6 7 8 8 9 9 9 8 9 9 10 9 9 9 9 9 8 7 8
2 2 4 5 3 5 7 6 10 13 13 14 11 11 5 7 7 5 5 4 3 2 4 6 8 9 10 11 11 10 10 11 10 9 10 11 11 11 9 10 10 7 5 5
2 3 6 5 1 2 5 9 11 11 11 12 4 7 6 3 2 4 3 1 1 3 4 7 9 10 11 12 12 12 12 12 11 11 11 12 14 14 13 12 9 7 5 5
2 4 3 4 7 5 6 10 8 6 7 4 3 8 3 5 2 1 2 4 6 6 7 9 11 11 12 13 14 14 14 14 13 13 13 14 16 16 15 12 10 8 6 6
5 2 1 2 6 5 5 8 8 8 9 11 8 8 1 4 3 4 5 7 9 10 9 10 10 10 11 13 13 14 15 16 15 13 12 12 14 10 7 8 6 6 5 6
5 4 2 0 2 6 5 5 8 10 12 11 7 4 5 5 7 8 8 9 10 10 10 10 9 10 10 11 11 12 13 15 14 12 9 6 4 3 3 4 4 4 4 5
7 9 3 5 6 3 5 6 5 7 8 10 9 9 5 6 6 5 7 10 9 9 8 8 8 9 8 7 7 9 11 11 10 7 3 2 3 2 2 3 4 4 5 5
9 10 7 7 10 9 6 7 7 7 8 8 10 7 4 5 8 8 11 12 10 9 8 8 8 8 5 3 3 6 9 11 10 9 9 9 7 5 3 2 3 3 4 5
6 9 11 11 3 5 11 11 9 10 11 12 13 11 6 7 10 12 15 14 11 8 7 7 8 6 5 3 2 3 6 8 9 10 10 7 5 5 3 2 1 1 3 4
4 7 12 11 7 7 9 11 12 13 13 13 15 12 5 8 13 17 18 13 10 8 7 7 6 5 5 4 3 1 1 3 5 7 7 5 1 3 1 1 1 1 3 3
6 12 14 17 15 13 12 13 13 14 13 16 18 19 16 17 16 15 12 10 9 8 7 7 6 5 5 5 4 3 1 1 3 6 9 8 5 2 1 2 3 4 4 5
6 11 14 16 16 15 18 18 17 17 19 22 22 21 18 16 15 14 11 9 8 9 9 7 7 6 6 6 5 4 2 2 3 7 11 10 8 6 4 4 4 5 6 7
5 10 13 15 16 17 20 20 20 19 19 21 22 21 17 14 13 13 12 9 9 10 9 8 7 7 7 7 6 4 2 2 2 6 11 11 10 8 7 5 6 7 7 7
7 8 10 11 8 12 13 10 10 11 14 17 18 17 15 17 17 16 13 10 10 10 9 8 8 8 8 7 6 5 3 2 2 5 9 11 11 9 7 6 7 7 7 7
7 7 6 9 9 9 5 3 9 14 15 16 16 15 15 15 14 14 12 11 10 9 8 9 8 9 9 8 7 6 5 3 2 4 7 10 12 11 7 5 6 6 6 6
5 6 7 8 11 12 10 7 9 12 16 15 12 11 13 13 14 14 8 9 10 9 8 8 9 10 9 9 8 7 7 5 4 4 5 9 12 14 12 9 8 6 5 5
6 7 8 10 13 9 8 9 10 13 14 5 12 18 21 22 18 14 12 8 9 9 8 8 9 10 10 10 9 9 9 8 7 6 6 7 9 12 13 12 11 9 7 6
7 9 11 12 13 9 7 9 15 13 12 22 25 25 24 23 20 20 20 15 11 10 10 10 10 11 11 10 9 9 9 9 8 8 8 7 8 9 11 12 11 11 9 7
9 8 6 6 8 6 12 17 13 15 19 22 23 22 22 21 21 21 19 15 11 12 11 12 11 11 11 11 10 10 10 9 8 9 9 8 8 8 10 10 10 10 10 9
6 7 7 7 9 12 14 16 16 18 19 21 22 23 22 21 20 20 19 16 12 14 13 13 13 13 12 12 11 11 10 9 10 10 9 9 9 7 8 9 10 10 10 10
9 8 9 12 10 12 14 16 18 18 19 21 22 23 22 22 21 20 18 16 12 12 14 14 15 14 14 13 13 12 10 11 11 11 10 9 9 8 8 6 7 8 10 10
12 10 10 11 11 13 12 17 20 20 20 22 22 22 23 23 21 20 18 16 13 11 13 14 15 15 15 14 14 13 12 11 11 11 10 10 10 8 8 7 4 5 6 6
9 9 7 7 12 11 13 17 19 19 20 20 21 21 21 20 21 20 18 17 14 11 11 14 16 17 16 16 15 14 12 12 11 10 10 9 9 9 8 8 7 7 4 8
Wind_Direction
206 233 87 65 22 15 315 278 280 3 359 308 298 294 342 348 19 49 59 89 136 152 164 181 195 212 215 211 211 213 218 204 204 207 215 222 225 227 233 232 234 245 258 268
205 121 98 123 136 156 190 277 300 255 305 303 295 277 181 259 36 22 35 81 153 196 200 213 246 265 271 267 264 261 253 252 243 230 217 214 212 218 229 244 246 244 247 250
36 56 123 176 180 246 284 318 321 312 306 270 272 267 186 168 150 108 89 100 108 104 89 318 299 297 294 289 285 284 282 273 265 259 250 236 225 224 220 232 241 243 243 247
184 82 187 234 272 301 296 339 309 302 297 296 285 289 251 170 164 131 120 107 95 81 48 16 354 342 328 318 306 297 288 278 267 257 253 250 246 246 242 238 238 236 230 225
230 256 269 267 298 301 324 319 293 289 285 283 264 265 266 167 197 150 130 109 84 50 2 348 339 332 327 324 320 312 304 299 293 281 269 264 261 260 255 242 233 217 197 198
306 261 277 296 264 303 306 285 269 255 260 263 277 281 270 161 181 149 140 134 309 318 327 329 326 323 321 318 313 309 306 299 292 281 269 258 256 253 244 229 215 198 188 188
260 231 229 264 250 216 289 315 301 271 253 287 80 277 294 87 137 199 306 306 299 301 310 317 321 321 316 313 310 306 299 292 284 270 256 247 244 242 235 223 212 201 194 193
307 316 33 276 283 304 333 317 324 312 308 314 286 266 325 131 198 235 265 287 295 297 297 305 312 310 307 309 311 310 303 294 286 272 260 250 248 243 230 217 207 204 200 183
297 318 132 205 269 289 293 307 333 293 282 279 269 264 258 191 217 233 261 284 293 300 301 300 301 299 304 313 325 329 319 305 294 283 274 259 246 219 184 171 185 184 164 152
287 288 257 169 194 190 298 314 287 289 298 294 286 272 255 197 232 263 300 310 309 308 300 299 297 298 309 323 342 356 354 340 327 310 307 45 52 67 116 163 156 143 147 155
276 278 263 216 239 262 215 235 261 283 286 284 289 302 24 275 286 286 310 315 305 301 305 304 297 297 292 299 360 22 23 19 22 39 52 44 27 11 12 39 96 121 143 152
274 278 279 270 275 289 269 261 257 268 273 260 272 283 305 287 276 277 297 306 302 294 292 294 296 285 264 267 298 19 38 44 50 61 69 59 15 346 354 45 79 169 171 165
293 267 272 263 199 202 237 245 260 270 274 271 272 272 280 280 280 283 291 294 287 271 275 289 285 262 255 266 272 287 69 81 90 101 103 108 51 328 350 74 107 98 107 108
275 263 270 282 294 304 275 258 252 262 266 271 270 280 293 299 308 315 305 295 276 261 267 278 272 248 251 259 270 265 236 166 158 155 148 158 175 190 84 65 76 89 105 111
258 267 272 277 284 282 276 275 270 258 261 273 282 285 292 298 307 315 311 297 265 257 264 266 261 252 248 249 257 264 266 244 210 179 168 172 177 174 154 132 126 128 125 118
267 284 284 279 276 277 275 271 269 268 266 267 273 277 284 300 302 301 302 286 266 264 263 260 250 247 245 247 251 256 277 293 229 184 172 174 174 164 153 146 139 134 124 121
268 268 287 283 299 293 274 272 270 273 272 274 277 286 304 311 307 308 305 285 270 273 265 252 245 238 239 241 244 247 251 263 214 171 171 170 161 149 145 150 139 130 126 127
257 270 267 289 294 265 298 342 298 295 292 292 287 292 303 312 317 303 284 274 273 273 262 249 240 229 226 232 234 234 245 239 198 157 159 160 152 146 143 143 129 119 116 125
231 253 277 282 288 288 292 299 319 311 299 298 311 329 329 334 311 292 281 241 251 260 253 245 236 227 222 225 226 226 236 239 222 175 158 160 160 158 160 160 152 139 131 128
198 230 266 279 288 287 328 21 354 311 293 12 344 329 322 314 301 301 327 297 254 236 227 223 221 220 215 219 221 226 233 234 225 197 175 165 162 164 165 159 158 158 155 142
250 253 259 277 281 279 1 2 333 309 320 332 320 313 307 299 294 298 299 290 263 238 215 206 208 208 209 208 213 228 239 235 221 193 178 171 157 154 155 156 161 167 167 154
291 283 282 283 275 278 2 337 322 305 307 307 306 303 299 296 292 292 292 287 257 239 221 202 200 203 202 201 209 225 232 226 209 187 182 171 165 164 154 161 166 170 166 160
258 290 304 287 278 307 321 317 330 336 329 323 316 310 303 297 295 294 294 291 264 237 225 206 199 198 197 199 209 219 212 204 199 190 186 178 172 165 159 166 167 168 173 175
281 292 282 283 281 320 333 354 357 351 342 338 334 326 315 303 297 293 294 295 281 243 224 208 200 197 196 197 203 213 205 195 200 197 187 182 173 169 166 175 177 179 180 182
324 329 314 299 340 344 347 355 347 343 342 342 341 342 338 329 317 308 300 294 288 259 230 211 202 200 196 194 200 206 204 197 201 198 190 187 184 179 177 182 158 192 190 184
24 19 0 356 353 327 336 343 345 343 340 337 335 338 342 343 337 329 318 311 302 276 237 219 211 203 195 191 196 197 195 196 203 202 198 196 194 181 185 169 151 66 79 113